Zurück zum Katalog

BREEZE-M R/B

AktivHEO
NORAD 41192·ROCKET BODY·🇷🇺 Russia

Gestartet Dec 24, 2015 von Baikonur Cosmodrome

Loading…

Nächste Überflüge (nächste 24 Stunden)

TLE

AktuellSource: Space-Track

Epoche: Sep 14, 2026, 17:43 UTC

1 41192U 15082B   26257.73845347 -.00000094  00000-0  00000-0 0  9990
2 41192  23.0718  56.1804 6007054 203.2902 111.0407  2.16570164 84855

Verfolge BREEZE-M R/B in Echtzeit mit AllMySat

Download on the App Store